{"data":{"norad_id":46487,"epoch":"2026-09-20T03:51:04.150080Z","epoch_age_seconds":82582,"freshness":"FRESH","line1":"1 46487U 20068B   26263.16046470 -.00000025  00000+0 -24949-3 0  9991","line2":"2 46487  82.4901 287.5057 0019874 181.1663 178.9373 12.42876425270945","mean_motion":12.42876425,"eccentricity":0.0019874,"inclination_deg":82.4901,"raan_deg":287.5057,"arg_perigee_deg":181.1663,"mean_anomaly_deg":178.9373,"bstar":-0.00024949,"rev_number":27094,"period_min":115.86027146665,"perigee_km":1478.7872384167,"apogee_km":1510.0791303857,"semimajor_km":7872.5701844012,"source":"CELESTRAK","updated_at":"2026-09-20T09:00:14.759686Z"}}